Regional Weather Roundup
Issued by NWS State College, PA

Home | Current Version | Previous Version | Text Only | Print | Product List | Glossary Off
Versions: 1 2 3 4 5 6 7 8 9 10 11 12 13 14 15 16 17 18 19 20 21 22 23 24 25 26 27 28 29 30 31 32 33 34 35 36 37 38 39 40 41 42 43 44 45 46 47 48 49 50

000
ASUS41 KCTP 121303
RWRCTP

REGIONAL WEATHER ROUNDUP
NATIONAL WEATHER SERVICE STATE COLLEGE PA
800 AM EST TUE DEC 12 2017

Note: "fair" indicates few or no clouds below 12,000 feet with no
significant weather and/or obstructions to visibility.

* = STATION THAT DOES NOT REPORT PRECIPITATION /E.G. RAIN...SNOW...ETC/
    THUNDER OR FOG.

PAZ002>004-007>009-013>016-020>023-029>032-121400-
WESTERN PENNSYLVANIA

CITY           SKY/WX    TMP DP  RH WIND       PRES   REMARKS
ERIE           SNOW      30  27  88 NW23G33   29.61R VSB 1/4
MEADVILLE      LGT SNOW  28  27  96 W14G21    29.59R FOG
FRANKLIN*      LGT SNOW  29  27  92 W8        29.56S FOG
NEW CASTLE     LGT SNOW  31  31 100 NW8       29.63R FOG
BEAVER COUNTY  LGT SNOW  30  30 100 W8        29.62R
BUTLER*        LGT SNOW  31  30  96 W9        29.60S FOG
PITTSBURGH INT LGT SNOW  34  31  88 W12       29.62S VSB 1
PITTSBURGH     LGT SNOW  32  28  85 W13G22    29.60R FOG
INDIANA*       CLOUDY    34  32  93 NW7G14    29.60R FOG
LATROBE        LGT RAIN  36  32  87 W12G23    29.60R
WASHINGTON CO* LGT SNOW  33  30  88 W14       29.67R FOG
$$

PAZ004>006-010>012-017>019-024>028-033>037-041-042-045-046-049>053-121400-
CENTRAL PENNSYLVANIA

CITY           SKY/WX    TMP DP  RH WIND       PRES   REMARKS
BRADFORD       LGT SNOW  30  28  92 W9        29.46S VSB 3/4
DUBOIS         LGT SNOW  30  27  88 W14       29.51R FOG
CLEARFIELD     MIX PCPN  34  31  88 W17       29.52R
JOHNSTOWN      CLOUDY    33  27  78 W16G30    29.51R
ALTOONA        CLOUDY    41  26  55 W20       29.53S
STATE COLLEGE  CLOUDY    34  28  80 SW6       29.52S
WILLIAMSPORT   CLOUDY    39  31  72 SE10      29.54F
SELINSGROVE    CLOUDY    35  30  82 CALM      29.57F
FT INDIANTOWN  CLOUDY    35  33  92 CALM      29.59F
CAPITAL CITY   CLOUDY    37  30  75 SE3       29.59F
HARRISBURG     CLOUDY    37  34  89 CALM      29.58F
YORK           CLOUDY    38  32  79 CALM      29.58F
$$

PAZ038>040-043-044-047-048-054-055-060>062-067>071-121400-
EASTERN PENNSYLVANIA

CITY           SKY/WX    TMP DP  RH WIND       PRES   REMARKS
SCRANTON       CLOUDY    37  31  78 VRB3      29.54F
MOUNT POCONO   FLURRIES  32  31  96 SE9G20    29.52F
ALLENTOWN      CLOUDY    39  31  72 SE5       29.60F
QUAKERTOWN*    CLOUDY    36  32  87 CALM      29.60F
READING        CLOUDY    39  34  82 SE6       29.59S
LANCASTER      CLOUDY    37  35  92 CALM      29.60S
COATESVILLE    CLOUDY    37  34  87 VRB3      29.60F
POTTSTOWN      MOCLDY    39  32  76 CALM      29.61F
BLUE BELL      CLOUDY    41  34  75 S5        29.62F
DOYLESTOWN     CLOUDY    39  33  79 SE3       29.60F
WILLOW GROVE   NOT AVBL
NORTH PHILA    CLOUDY    45  36  70 VRB5      29.63F
PHILADELPHIA   CLOUDY    46  33  60 S10       29.61F
$$



USA.gov is the U.S. government's official web portal to all federal, state and local government web resources and services.